Regional Weather Roundup
Issued by NWS New Orleans/Baton Rouge, LA

Home | Current Version | Previous Version | Text Only | Print | Product List | Glossary On
Versions: 1 2 3 4 5 6 7 8 9 10 11 12 13 14 15 16 17 18 19 20 21 22 23 24 25 26 27 28 29 30 31 32 33 34 35 36 37 38 39 40 41 42 43 44 45 46 47 48 49 50
000
ASUS44 KLIX 241111
RWRLIX
NEW ORLEANS REGIONAL WEATHER ROUNDUP
NATIONAL WEATHER SERVICE NEW ORLEANS LA
600 AM CDT SUN JUL 24 2016

NOTE: "FAIR" INDICATES FEW OR NO CLOUDS BELOW 12,000 FEET WITH NO
      SIGNIFICANT WEATHER AND/OR OBSTRUCTIONS TO VISIBILITY.
      SKY/WX - SKY CONDITION AND SIGNIFICANT WEATHER.
      TMP - AIR TEMPERATURE.     DP    - DEWPOINT TEMPERATURE.
      RH  - RELATIVE HUMIDITY.   PRES  - PRESSURE.
      HI  - HEAT INDEX.          WCI   - WIND CHILL INDEX.

*  THESE STATIONS ARE NOT NWS OR FAA STATIONS AND ARE NOT UNDER
   NWS QUALITY CONTROL.

LAZ038-040-048-061>063-065>067-069-241200-
SOUTHEAST LOUISIANA

CITY           SKY/WX    TMP DP  RH WIND       PRES   REMARKS
N.O. AUDUBON     N/A     80  79  94 MISG        N/A
N.O. INTL ARPT PTCLDY    82  76  81 CALM      29.96R
N.O. LAKEFRONT CLEAR     83  76  79 SW6       29.97R
N.O. DOWNTOWN*   N/A     83  77  82 CALM      29.97R
RESERVE*         N/A     77  75  94 CALM      29.96R
SLIDELL        PTCLDY    76  75  97 CALM      29.96R
BATON ROUGE    CLOUDY    77  74  90 CALM      29.96R
BOOTHVILLE     CLOUDY    82  76  81 S6        29.96S
BELLE CHASSE   PTCLDY    76  75  97 CALM      29.96R
BOGALUSA*      CLOUDY    76  73  90 CALM      29.98S
GALLIANO*      MOSUNNY   72  71  97 SW5       29.96R FOG
NEW ROADS*       N/A     75  75  99 N3        29.96R
GONZALES*        N/A     76  76 100 CALM      29.95R
HAMMOND*       PTCLDY    73  72  94 CALM      29.97R
HOUMA*         PTCLDY    76  76  99 CALM      29.95R FOG
PORT FOURCHON* PTSUNNY   84  75  74 SW6       29.95S

$$

MSZ070-080>082-241200-
SOUTHERN MISSISSIPPI

CITY           SKY/WX    TMP DP  RH WIND       PRES   REMARKS
MCCOMB         PTCLDY    75  72  90 CALM      29.98R FOG
GULFPORT       PTCLDY    78  76  93 CALM      29.95R
BILOXI         PTCLDY    80  79  96 NE5       29.96R
PASCAGOULA     CLEAR     74  74 100 N3        29.97R

$$

COASTAL OBSERVATIONS
LAKE AND NEARSHORE STATIONS

STATION/POSITION TIME  TEMP    WIND        PRES    WAVE
                       AIR SEA DIR/SP/G            HT/PER
                 (UTC) (F)     (DEG/KT/KT) (MB)    (FT/S)
PASCAGOULA       1000   80     230/  2/  3 1013.8
WAVELAND YACHT   1000   81 87  320/  3/  3 1014.0
GRAND ISLE       1000   81 89  120/  2/  6 1014.3
SOUTHWEST PASS   1000          230/  5/  6   N/A
NEW CANAL        1000   82 88  200/  3/  4 1013.2
SHELL BEACH      1000   82 88  250/  5/  6 1014.1

OFFSHORE STATIONS

STATION/POSITION TIME  TEMP    WIND        PRES    WAVE
                       AIR SEA DIR/SP/G            HT/PER
                 (UTC) (F)     (DEG/KT/KT) (MB)    (FT/S)
64 S DAUPHIN ISL 1000   84 88  230/  4/  6 1014.3

$$




USA.gov is the U.S. government's official web portal to all federal, state and local government web resources and services.